sat.trackr.live / text

‹ back to catalog

STARLINK-3192

NORAD 49767 · 2021-115AV

PAYLOAD ACTIVE UNKNOWN

§ Identity

Operator
Country
US
Launch date
2021-12-02
Launch site
AFETR
Launch vehicle
Mass (kg)
RCS (m²)

Purposes: comms

External: N2YO · Heavens-Above · Gunter

§ Orbital elements

Epoch: 2026-09-19T19:51:10.553472Z

Period
93.85 min
Inclination
53.1614°
Eccentricity
0.0001443
Mean motion
15.34389371 rev/d
Perigee alt
461.7 km
Apogee alt
463.7 km
Semi-major
6,840.9 km
B*
2.4279e-5
RAAN
332.5491°
Arg perigee
67.4317°
Mean anomaly
292.6838°
Rev number
26,519

§ Raw data

STARLINK-31921 49767U 21115AV  26262.82720548  .00000444  00000+0  24279-4 0  99962 49767  53.1614 332.5491 0001443  67.4317 292.6838 15.34389371265197

JSON: /api/v1/satellites/49767 · /tle

For live sub-satellite position, see the globe view (requires WebGL).

§ Visibility from observer

Set your observer location to see the next 7 days of passes ≥ 10°. The values pass through the URL so the page stays shareable.

No JS? Fill the form by hand. The geolocation button needs JavaScript.